DW7095 Weather Reports


time (UTC)temp
C
wind
direction
speed
KPH
gust
KPH
rain 1hr
cm
rain 24hr
cm
rain mn
cm
humidity
%
barometer
mb
20260504120103 9 55 40.2 57.9 0.00 0.00 0.00 42 1006.9
20260504081527 10 293 8.0 11.3 0.00 0.00 0.00 44 1003.8
20260504044518 12 209 6.4 9.7 0.00 0.00 0.00 38 1004.0
20260504043105 12 360 3.2 6.4 0.00 0.00 0.00 36 1004.1
20260504041600 13 360 0.0 3.2 0.00 0.00 0.00 34 1004.0
20260504040042 14 360 8.0 14.5 0.00 0.00 0.00 33 1003.9
20260504034541 15 360 9.7 12.9 0.00 0.00 0.00 32 1003.9
20260504033026 15 298 4.8 9.7 0.00 0.00 0.00 30 1003.8
20260504031526 15 296 3.2 6.4 0.00 0.00 0.00 30 1003.6
20260504030005 17 322 0.0 1.6 0.00 0.00 0.00 20 1003.5
20260504024505 18 325 0.0 6.4 0.00 0.00 0.00 19 1003.4
20260504023051 19 103 6.4 11.3 0.00 0.00 0.00 18 1003.4
20260504021548 20 71 4.8 17.7 0.00 0.00 0.00 16 1003.2
20260504020024 21 63 11.3 17.7 0.00 0.00 0.00 16 1003.2
20260504014526 22 32 12.9 19.3 0.00 0.00 0.00 18 1003.1
20260504013003 22 277 8.0 14.5 0.00 0.00 0.00 19 1003.1
20260504011501 22 242 14.5 19.3 0.00 0.00 0.00 19 1003.2
20260504010048 22 235 11.3 16.1 0.00 0.00 0.00 20 1003.4
20260504004542 22 254 9.7 12.9 0.00 0.00 0.00 19 1003.4
20260504003022 22 274 4.8 12.9 0.00 0.00 0.00 18 1003.6
20260504001519 22 142 3.2 8.0 0.00 0.00 0.00 21 1003.8
20260504000104 22 143 4.8 12.9 0.00 0.00 0.00 21 1004.0
20260503234625 22 232 6.4 11.3 0.00 0.00 0.00 22 1004.2
20260503233046 22 217 9.7 14.5 0.00 0.00 0.00 22 1004.3
20260503231539 22 157 8.0 19.3 0.00 0.00 0.00 21 1004.2
20260503230052 22 213 11.3 17.7 0.00 0.00 0.00 22 1004.3
20260503224518 22 184 1.6 11.3 0.00 0.00 0.00 22 1004.4
20260503223117 22 74 12.9 20.9 0.00 0.00 0.00 22 1004.6
20260503221601 22 192 8.0 16.1 0.00 0.00 0.00 22 1004.9
20260503220055 22 117 6.4 14.5 0.00 0.00 0.00 22 1005.1
20260503214535 22 161 1.6 11.3 0.00 0.00 0.00 23 1005.4
20260503213033 21 101 4.8 17.7 0.00 0.00 0.00 24 1005.8
20260503211513 21 115 9.7 29.0 0.00 0.00 0.00 25 1006.2
20260503210011 21 70 3.2 17.7 0.00 0.00 0.00 26 1006.4
20260503204555 21 132 11.3 22.5 0.00 0.00 0.00 27 1006.6
20260503203056 21 311 4.8 11.3 0.00 0.00 0.00 26 1007.0
20260503201536 21 117 11.3 19.3 0.00 0.00 0.00 26 1007.1
20260503200034 21 44 8.0 17.7 0.00 0.00 0.00 27 1007.3
20260503194531 20 72 9.7 16.1 0.00 0.00 0.00 28 1007.5
20260503193030 20 106 4.8 17.7 0.00 0.00 0.00 28 1007.8
20260503191530 20 76 4.8 11.3 0.00 0.00 0.00 27 1008.0
20260503190025 20 121 3.2 14.5 0.00 0.00 0.00 27 1008.3
20260503184521 19 328 8.0 14.5 0.00 0.00 0.00 28 1008.5
20260503183019 18 134 4.8 19.3 0.00 0.00 0.00 31 1008.8
20260503181600 18 127 4.8 14.5 0.00 0.00 0.00 31 1008.9
20260503180106 18 78 9.7 14.5 0.00 0.00 0.00 31 1009.2
20260503174537 18 101 6.4 11.3 0.00 0.00 0.00 33 1009.4
20260503173038 17 24 4.8 12.9 0.00 0.00 0.00 36 1009.6
20260503171514 17 178 1.6 11.3 0.00 0.00 0.00 36 1009.8
20260503170112 17 182 3.2 6.4 0.00 0.00 0.00 37 1010.0